Berlin, NH

12:53 PM EDT on April 25, 2018 (GMT -0400)
Berlin Municipal

Weather History for KBML - September, 2014

Change the Weather History Date:

Thursday, September 25, 2014

  Actual Average Record
Temperature  
Mean Temperature 54 °F -  
Max Temperature 71 °F 63 °F 91 °F (2017)
Min Temperature 37 °F 36 °F 28 °F (1997)
Degree Days  
Heating Degree Days 12    
Growing Degree Days 4 (Base 50)    
Moisture  
Dew Point 44 °F    
Average Humidity 92    
Maximum Humidity 100    
Minimum Humidity 44    
Precipitation  
Precipitation 0.00 in - - ()
Sea Level Pressure  
Sea Level Pressure 30.41 in    
Wind  
Wind Speed 0 mph (SW)    
Max Wind Speed 6 mph    
Max Gust Speed -    
Visibility 4 miles    
Events Fog    
Averages and records for this station are not official NWS values.
T = Trace of Precipitation, MM = Missing Value Source: NWS Daily Summary

Daily Weather History Graph

Daily Weather History Graph

Search for Another Location

Airport or City:

Astronomy

Sep. 25, 2014 Rise Set
Actual Time 6:35 AM EDT 6:36 PM EDT
Civil Twilight 6:06 AM EDT 7:05 PM EDT
Nautical Twilight 5:32 AM EDT 7:39 PM EDT
Astronomical Twilight 4:57 AM EDT 8:14 PM EDT
Moon 7:54 AM EDT 7:14 PM EDT
Length of Visible Light 12h 59m
Length of Day
12h 01m
New Moon, 2% of the Moon is Illuminated
Sep 25
New Moon
Oct 1
First Quarter
Oct 8
Full
Oct 15
Last Quarter
Oct 23
New

Hourly Weather History & Observations

Time (EDT) Temp. Windchill Dew Point Humidity Pressure Visibility Wind Dir Wind Speed Gust Speed Precip Events Conditions
12:07 AM 37.9 °F - 37.9 °F 100% 30.55 in 0.2 mi Calm Calm - N/A Fog Fog
12:52 AM 39.0 °F - 39.0 °F 100% 30.57 in 0.2 mi Calm Calm - N/A Fog Fog
1:49 AM 39.2 °F - 39.2 °F 100% 30.56 in 0.2 mi Calm Calm - N/A Fog Fog
1:52 AM 39.0 °F - 39.0 °F 100% 30.57 in 0.2 mi Calm Calm - N/A Fog Fog
2:52 AM 39.0 °F - 37.9 °F 96% 30.55 in 0.2 mi Calm Calm - N/A Fog Fog
3:52 AM 39.0 °F - 39.0 °F 100% 30.54 in 0.2 mi Calm Calm - N/A Fog Fog
4:52 AM 39.0 °F - 39.0 °F 100% 30.54 in 0.2 mi Calm Calm - N/A Fog Fog
5:52 AM 39.0 °F 36.8 °F 37.9 °F 96% 30.54 in 0.2 mi North 3.5 mph - N/A Fog Fog
6:52 AM 37.9 °F - 37.9 °F 100% 30.54 in 0.2 mi Calm Calm - N/A Fog Fog
7:15 AM 37.9 °F - 37.0 °F 97% 30.51 in 0.8 mi Calm Calm - N/A   Overcast
7:35 AM 37.9 °F - 37.9 °F 100% 30.51 in 1.0 mi Calm Calm - N/A   Overcast
7:50 AM 39.2 °F - 37.4 °F 93% 30.51 in 0.2 mi Calm Calm - N/A Fog Fog
7:52 AM 39.0 °F - 39.0 °F 100% 30.54 in 0.2 mi Calm Calm - N/A Fog Fog
8:38 AM 41.0 °F - 41.0 °F 100% 30.49 in 0.8 mi Calm Calm - N/A   Overcast
8:48 AM 41.0 °F - 41.0 °F 100% 30.49 in 1.2 mi Calm Calm - N/A   Overcast
8:52 AM 41.0 °F - 41.0 °F 100% 30.53 in 1.5 mi Calm Calm - N/A   Overcast
8:57 AM 42.1 °F - 42.1 °F 100% 30.49 in 3.0 mi Calm Calm - N/A   Overcast
9:29 AM 44.1 °F - 44.1 °F 100% 30.49 in 2.0 mi Calm Calm - N/A   Overcast
9:43 AM 46.0 °F - 45.0 °F 96% 30.49 in 4.0 mi Calm Calm - N/A   Overcast
9:52 AM 46.0 °F - 45.0 °F 96% 30.52 in 7.0 mi Calm Calm - N/A   Overcast
10:20 AM 51.1 °F - 46.9 °F 86% 30.48 in 10.0 mi Calm Calm - N/A   Scattered Clouds
10:52 AM 55.0 °F - 48.0 °F 77% 30.49 in 10.0 mi Calm Calm - N/A   Clear
11:52 AM 61.0 °F - 48.9 °F 64% 30.46 in 10.0 mi Calm Calm - N/A   Clear
12:52 PM 64.9 °F - 48.9 °F 56% 30.43 in 10.0 mi Variable 3.5 mph - N/A   Clear
1:52 PM 69.1 °F - 51.1 °F 53% 30.39 in 10.0 mi SSW 4.6 mph - N/A   Clear
2:52 PM 70.0 °F - 46.9 °F 44% 30.36 in 10.0 mi Calm Calm - N/A   Clear
3:52 PM 70.0 °F - 48.9 °F 47% 30.33 in 10.0 mi SW 3.5 mph - N/A   Clear
4:52 PM 69.1 °F - 51.1 °F 53% 30.32 in 10.0 mi SSW 5.8 mph - N/A   Partly Cloudy
5:52 PM 64.0 °F - 55.0 °F 73% 30.31 in 10.0 mi Calm Calm - N/A   Clear
6:52 PM 55.9 °F - 54.0 °F 93% 30.32 in 10.0 mi Calm Calm - N/A   Clear
7:52 PM 50.0 °F - 50.0 °F 100% 30.32 in 10.0 mi Calm Calm - N/A   Clear
8:49 PM 48.2 °F - 46.4 °F 93% 30.29 in 1.2 mi Calm Calm - N/A   Clear
8:52 PM 48.0 °F - 46.9 °F 96% 30.32 in 0.8 mi Calm Calm - N/A   Clear
9:01 PM 46.9 °F - 46.0 °F 97% 30.29 in 1.5 mi Calm Calm - N/A   Clear
9:03 PM 46.0 °F - 46.0 °F 100% 30.29 in 3.0 mi Calm Calm - N/A   Clear
9:35 PM 46.0 °F - 45.0 °F 96% 30.29 in 9.0 mi Calm Calm - N/A   Partly Cloudy
9:52 PM 45.0 °F - 44.1 °F 97% 30.32 in 8.0 mi Calm Calm - N/A   Partly Cloudy
10:04 PM 45.0 °F - 44.1 °F 97% 30.29 in 1.2 mi Calm Calm - N/A   Partly Cloudy
10:12 PM 44.1 °F - 43.0 °F 96% 30.29 in 1.5 mi Calm Calm - N/A   Mostly Cloudy
10:19 PM 43.0 °F - 43.0 °F 100% 30.29 in 8.0 mi Calm Calm - N/A   Mostly Cloudy
10:35 PM 44.1 °F - 43.0 °F 96% 30.29 in 1.8 mi Calm Calm - N/A   Overcast
10:38 PM 44.1 °F - 43.0 °F 96% 30.29 in 0.8 mi Calm Calm - N/A   Mist
10:48 PM 44.6 °F - 44.6 °F 100% 30.29 in 0.2 mi Calm Calm - N/A Fog Fog
10:52 PM 44.1 °F - 44.1 °F 100% 30.31 in 0.2 mi Calm Calm - N/A Fog Fog
11:11 PM 42.1 °F - 42.1 °F 100% 30.28 in 0.5 mi Calm Calm - N/A Fog Fog
11:22 PM 43.0 °F - 43.0 °F 100% 30.28 in 0.2 mi Calm Calm - N/A Fog Fog
11:36 PM 42.1 °F - 42.1 °F 100% 30.28 in 1.0 mi Calm Calm - N/A   Mist
11:45 PM 42.1 °F - 42.1 °F 100% 30.29 in 0.5 mi Calm Calm - N/A Fog Fog
11:52 PM 42.1 °F - 42.1 °F 100% 30.30 in 0.2 mi Calm Calm - N/A Fog Fog